Home   Weather   Colorado Springs   Past weeks

Flag for USA Past Weather in Colorado Springs, Colorado, USA — Yesterday and Last 2 Weeks

53 °F

Passing clouds.

Feels Like: 51 °F
Forecast: 46 / 70 °F
Wind: 8 mph from North

Location: City Of Colorado Springs Municipal Airport

Current Time: Oct 23, 2016 at 3:55:15 AM

Latest Report: Oct 23, 2016 at 2:54 AM

Visibility: 10 mi

Pressure: 29.96 "Hg (24.05 "Hg at 1831m altitude)

Humidity: 20%

Dew Point: 13 °F

Location of Colorado SpringsLocation

Past Weather in Colorado Springs — Graph


Colorado Springs Temperature Yesterday

Maximum temperature yesterday: 81 °F (at 1:54 PM)
Minimum temperature yesterday: 39 °F (at 4:54 AM)
Average temperature yesterday: 62 °F

High & Low Weather Summary for the Past Weeks

High85 °F (Oct 16, 12:54 PM)93% (Oct 12, 10:54 AM)30.53 "Hg (Oct 12, 10:54 AM)
Low33 °F (Oct 21, 12:54 AM)6% (Oct 17, 2:54 PM)29.34 "Hg (Oct 17, 12:54 PM)
Average58 °F32%29.97 "Hg
* Reported Oct 8 1:54 AM — Oct 23 1:54 AM, Colorado Springs, Weather by CustomWeather, © 2016

Note: Actual official high and low records may vary slightly from our data, if they occured in-between our weather recording intervals... More about our weather records


Colorado Springs Weather History for the Previous 24 Hours

Scroll right to see more
Time TempWeatherWind HumidityBarometerVisibility
1:54 AM
Sun, Oct 23
53 °FPassing clouds.12 mph19%29.94 "Hg10 mi
12:54 AM51 °FClear.8 mph21%29.95 "Hg10 mi
11:54 PM
Sat, Oct 22
53 °FClear.10 mph18%29.92 "Hg10 mi
10:54 PM55 °FClear.9 mph17%29.92 "Hg10 mi
9:54 PM64 °FClear.12 mph12%29.88 "Hg10 mi
8:54 PM63 °FClear.13 mph12%29.88 "Hg10 mi
7:54 PM69 °FPassing clouds.13 mph11%29.89 "Hg10 mi
6:54 PM70 °FPassing clouds.8 mph14%29.89 "Hg10 mi
5:54 PM77 °FScattered clouds.13 mph9%29.84 "Hg10 mi
4:54 PM80 °FScattered clouds.5 mph8%29.83 "Hg10 mi
3:54 PM81 °FScattered clouds.5 mph7%29.82 "Hg10 mi
2:54 PM81 °FPassing clouds.5 mph7%29.83 "Hg10 mi
1:54 PM81 °FPassing clouds.No wind7%29.81 "Hg10 mi
12:54 PM79 °FPassing clouds.No wind8%29.85 "Hg10 mi
11:54 AM79 °FPassing clouds.3 mph8%29.87 "Hg10 mi
10:54 AM75 °FPassing clouds.No wind8%29.89 "Hg10 mi
9:54 AM71 °FPassing clouds.No wind9%29.90 "Hg10 mi
8:54 AM67 °FPassing clouds.No wind12%29.89 "Hg10 mi
7:54 AM51 °FPassing clouds.5 mph21%29.98 "Hg10 mi
6:54 AM44 °FPassing clouds.9 mph28%29.99 "Hg10 mi
5:54 AM42 °FPassing clouds.8 mph30%29.96 "Hg10 mi
4:54 AM39 °FPassing clouds.8 mph36%29.96 "Hg10 mi
3:54 AM40 °FClear.3 mph35%29.94 "Hg10 mi
Weather by CustomWeather, © 2016

See weather overviewHow to use our weather pages